[[{"header":{"parameterUnit":"m.s-1","parameterCategory":1,"la1":30.2991,"la2":30.254,"lo1":-89.0895,"lo2":-89.0444,"dy":0.0017,"dx":0.0017,"nx":28,"ny":28,"refTime":"2025-05-16T21:00:00:Z","depth":0,"parameterNumber":2,"parameterNumberName":"U-component_of_WINDS"},"data":[0,0,0,0,0,0,0,0,0,0,0,0,0,0,0,0,0,0,0,0,0,0,0,0,0,0,0,0,0,0,0,0,0,0,0,0,0,0,0,0,0,0,0,0,0,0,0,0,0,0,0,0,0,0,0,0,0,0,3.0044,3.0044,0,3.011,3.0111,3.0112,3.0083,3.0081,3.0079,3.0078,3.0146,3.0149,3.0152,0,0,0,0,0,0,0,0,0,0,0,0,0,2.9889,2.9892,3.0043,3.0044,3.0045,3.011,3.0111,3.0112,3.0083,3.0081,3.0079,3.0077,3.0145,3.0149,3.0153,0,0,0,0,0,0,0,0,0,0,0,0,0,2.9956,2.9893,3.0043,3.0038,3.0039,3.011,3.0111,3.0112,3.0083,3.0081,3.0078,3.0076,3.0143,3.0148,3.0153,3.0233,0,0,3.0168,3.0171,0,0,0,0,0,0,0,0,2.9952,2.9961,3.0038,3.0039,3.0039,3.0086,3.0081,3.0153,3.0084,3.0066,3.0078,3.0075,3.0128,3.0134,3.0152,3.0236,3.0239,3.0169,3.0172,3.0174,3.0175,0,0,0,0,0,0,0,2.9947,2.9958,3.007,3.0039,3.004,3.0032,3.0039,3.0095,3.011,3.0068,3.0066,3.0074,3.0127,3.0147,3.0153,3.024,3.0169,3.0173,3.0176,3.0178,3.0391,3.0393,0,0,0,0,0,0,2.9943,2.9955,3.0068,3.0072,2.9989,3.0037,3.0045,3.0073,3.0109,3.0112,3.0076,3.0072,3.014,3.0147,3.0155,3.0249,3.0174,3.0179,3.0182,3.0388,3.0391,3.0394,0,0,0,0,0,0,2.994,2.9953,3.0065,3.0013,3.0026,3.0042,3.0075,3.0076,3.0095,3.0116,3.0118,3.0093,3.0138,3.0148,3.0213,3.0251,3.0181,3.0185,3.0385,3.0389,3.0393,3.0439,0,0,0,0,0,0,2.9935,2.9952,2.9983,3.0014,3.0029,3.0123,3.0077,3.0079,3.0104,3.01,3.0132,3.0135,3.0137,3.0206,3.0218,3.0257,3.0189,3.0382,3.0387,3.0392,3.0434,3.0444,3.0453,0,0,0,0,0,2.993,2.9994,2.9985,2.9999,3.0069,3.0125,3.0134,3.0134,3.0107,3.0138,3.0151,3.0134,3.0246,3.0213,3.0227,3.0267,3.0379,3.0386,3.0391,3.043,3.0442,3.0452,0,0,0,0,0,0,2.9968,2.9998,2.9988,3.0065,3.0092,3.012,3.0159,3.0147,3.0184,3.0178,3.0177,3.0185,3.0251,3.0266,3.0229,3.0345,3.0308,3.0317,3.0333,3.0345,3.0354,3.0348,3.0194,0,0,0,0,0,2.9985,3.0029,3.0053,3.0118,3.0132,3.0143,3.0168,3.0166,3.0194,3.0206,3.0223,3.0252,3.0293,3.032,3.0359,3.0437,3.0442,3.0471,3.048,3.0488,3.0495,3.0535,3.0547,3.0414,3.0414,3.0414,0,0,3.0021,3.0043,3.0071,3.0126,3.0147,3.0191,3.0153,3.0202,3.0235,3.0213,3.0275,3.0289,3.032,3.0392,3.0424,3.0406,3.0533,3.0495,3.0501,3.0504,3.0542,3.0555,3.0566,3.0418,3.0417,3.0417,0,0,3.0109,3.0131,3.0186,3.0208,3.0241,3.0247,3.0261,3.029,3.0298,3.036,3.0344,3.0383,3.0454,3.0476,3.0497,3.0592,3.0577,3.0605,3.0652,3.0691,3.0702,3.0711,3.0743,3.0754,3.0612,3.0612,3.0612,0,3.015,3.0216,3.0216,3.0266,3.0289,3.0272,3.0327,3.0348,3.0392,3.0408,3.0388,3.0475,3.0495,3.057,3.0593,3.0611,3.0625,3.06,3.07,3.071,3.0718,3.0748,3.0761,3.0615,3.0615,3.0615,3.0614,0,3.0263,3.031,3.035,3.0392,3.0421,3.0473,3.0479,3.0508,3.0503,3.0512,3.0574,3.0598,3.064,3.0658,3.0655,3.0732,3.072,3.07,3.0662,3.0734,3.0762,3.0774,3.062,3.0618,3.0618,3.0617,0,0,3.0377,3.0417,3.0432,3.045,3.0484,3.0519,3.057,3.0611,3.0635,3.0666,3.0707,3.0767,3.0748,3.0772,3.077,3.0805,3.0875,3.078,3.0781,3.0795,3.096,3.0973,3.0987,3.0867,3.0869,3.0871,3.0957,0,3.0465,3.0554,3.0555,3.0636,3.0678,3.0661,3.0705,3.0731,3.074,3.0776,3.0786,3.0828,3.0801,3.0815,3.0848,3.086,3.0908,3.0854,3.0904,3.0905,3.0894,3.1002,3.1017,3.1097,3.0968,3.097,3.0971,0,3.0581,3.0614,3.07,3.0726,3.0743,3.0783,3.082,3.0855,3.0883,3.0887,3.0912,3.0905,3.0955,3.0918,3.0986,3.0949,3.0969,3.0978,3.0981,3.0984,3.0941,3.1006,3.1123,3.1134,3.0989,3.0988,3.0986,0,3.0652,3.0719,3.0778,3.0794,3.0827,3.0855,3.087,3.0895,3.0919,3.0951,3.0966,3.1004,3.1025,3.1054,3.1057,3.1029,3.1125,3.1088,3.1128,3.1128,3.1148,3.1146,3.1267,3.1165,3.1164,3.1164,3.1164,0,3.075,3.0802,3.081,3.0846,3.0904,3.0904,3.0961,3.0973,3.0996,3.1033,3.1022,3.1057,3.106,3.1096,3.1098,3.1153,3.1163,3.1167,3.1167,3.1167,3.1166,3.1179,3.1173,3.1167,3.1167,3.1166,3.1165,0,3.0839,3.0847,3.091,3.0935,3.0943,3.0984,3.1005,3.1039,3.1047,3.1094,3.1106,3.1118,3.116,3.1165,3.1215,3.1216,3.1282,3.1277,3.1272,3.1271,3.131,3.1306,3.1442,3.1459,3.1347,3.1348,3.1349,0,3.09,3.094,3.0969,3.0993,3.1009,3.1049,3.1073,3.1075,3.11,3.1134,3.1163,3.1204,3.1236,3.1303,3.1316,3.1353,3.1347,3.1393,3.1353,3.1351,3.1345,3.1342,3.1345,3.14,3.1401,3.1402,3.1403,0,3.1007,3.1008,3.1044,3.108,3.1109,3.1138,3.1165,3.1186,3.119,3.1219,3.1262,3.1287,3.1336,3.1376,3.1412,3.1427,3.1415,3.1415,3.1426,3.1426,3.1421,3.1422,3.1291,3.1412,3.1411,3.141,3.141,3.1409,3.1082,3.1116,3.1141,3.1181,3.1201,3.1226,3.1259,3.127,3.1306,3.1346,3.1344,3.139,3.1415,3.1463,3.148,3.1515,3.15,3.1517,3.1521,3.1524,3.1527,3.1417,3.1522,3.1522,3.1522,3.1521,3.1521,0,3.1186,3.1201,3.1238,3.1276,3.1306,3.1293,3.1322,3.1348,3.1389,3.1413,3.1445,3.1493,3.1531,3.1546,3.1583,3.1608,3.1604,3.1618,3.1615,3.1618,3.1539,3.1525,3.1621,3.1621,3.1621,3.1621,3.1621,3.1621,3.1244,3.1299,3.1304,3.1369,3.1383,3.1428,3.1445,3.1468,3.1487,3.1541,3.1572,3.1582,3.1603,3.1641,3.1675,3.1678,3.1692,3.1708,3.1709,3.1634,3.1624,3.1614,3.1601,3.1711,3.1711,3.1784,3.1785,3.1786]},{"header":{"parameterUnit":"m.s-1","parameterCategory":1,"la1":30.2991,"la2":30.254,"lo1":-89.0895,"lo2":-89.0444,"dy":0.0017,"dx":0.0017,"nx":28,"ny":28,"refTime":"2025-05-16T21:00:00:Z","depth":0,"parameterNumber":3,"parameterNumberName":"V-component_of_WINDS"},"data":[0,0,0,0,0,0,0,0,0,0,0,0,0,0,0,0,0,0,0,0,0,0,0,0,0,0,0,0,0,0,0,0,0,0,0,0,0,0,0,0,0,0,0,0,0,0,0,0,0,0,0,0,0,0,0,0,0,0,3.8479,3.848,0,3.8541,3.8542,3.8543,3.8521,3.8519,3.8518,3.8517,3.8577,3.8579,3.8582,0,0,0,0,0,0,0,0,0,0,0,0,0,3.8339,3.8342,3.8479,3.848,3.8481,3.8541,3.8542,3.8543,3.8521,3.8519,3.8518,3.8516,3.8576,3.8579,3.8583,0,0,0,0,0,0,0,0,0,0,0,0,0,3.84,3.8343,3.8479,3.8477,3.8478,3.8541,3.8542,3.8543,3.8521,3.8519,3.8517,3.8515,3.8575,3.8579,3.8583,3.8651,0,0,3.8596,3.8598,0,0,0,0,0,0,0,0,3.8397,3.8405,3.8477,3.8478,3.8478,3.8521,3.8514,3.8579,3.8522,3.8505,3.8517,3.8514,3.856,3.8565,3.8581,3.8654,3.8656,3.8597,3.8599,3.8601,3.8602,0,0,0,0,0,0,0,3.8393,3.8403,3.8504,3.8478,3.8479,3.8472,3.8479,3.8527,3.8543,3.8506,3.8505,3.8512,3.856,3.8577,3.8582,3.8657,3.8596,3.86,3.8603,3.8605,3.8788,3.879,0,0,0,0,0,0,3.8389,3.8399,3.8502,3.8505,3.8432,3.8477,3.8484,3.8509,3.8542,3.8545,3.8514,3.8511,3.8571,3.8577,3.8584,3.8666,3.8601,3.8605,3.8608,3.8786,3.8788,3.8791,0,0,0,0,0,0,3.8386,3.8398,3.8499,3.8452,3.8465,3.8481,3.851,3.8512,3.8529,3.8548,3.8551,3.8529,3.8569,3.8578,3.8635,3.8668,3.8607,3.8611,3.8783,3.8786,3.879,3.8829,0,0,0,0,0,0,3.8382,3.8397,3.8424,3.8453,3.8467,3.855,3.8512,3.8514,3.8537,3.8534,3.8563,3.8566,3.8568,3.8628,3.8639,3.8672,3.8614,3.878,3.8784,3.8788,3.8825,3.8834,3.8841,0,0,0,0,0,3.8377,3.8432,3.8425,3.8438,3.8501,3.8551,3.8559,3.8562,3.854,3.8566,3.8579,3.8565,3.8662,3.8634,3.8646,3.8681,3.8778,3.8783,3.8788,3.8821,3.8832,3.8841,0,0,0,0,0,0,3.8404,3.8435,3.8428,3.8495,3.8521,3.8548,3.8581,3.8573,3.8605,3.8601,3.8601,3.8608,3.8666,3.8679,3.8647,3.8748,3.8717,3.8724,3.8738,3.8748,3.8756,3.8751,3.8618,0,0,0,0,0,3.8419,3.8458,3.8482,3.8538,3.8552,3.8564,3.8586,3.8586,3.8613,3.8623,3.864,3.8665,3.8702,3.8725,3.876,3.8827,3.8833,3.8857,3.8865,3.8871,3.8878,3.8914,3.8925,3.8808,3.8808,3.8807,0,0,3.8447,3.8469,3.8494,3.8544,3.8565,3.8605,3.8574,3.8617,3.8647,3.863,3.8684,3.8697,3.8726,3.8788,3.8816,3.88,3.8911,3.8878,3.8883,3.8886,3.892,3.8931,3.8941,3.8811,3.881,3.881,0,0,3.8521,3.8541,3.859,3.8612,3.8643,3.8651,3.8663,3.8691,3.87,3.8755,3.8743,3.8777,3.884,3.886,3.8879,3.8961,3.8949,3.8972,3.9013,3.9048,3.9058,3.9066,3.9095,3.9105,3.8978,3.8978,3.8978,0,3.8552,3.8613,3.8616,3.8661,3.8684,3.8671,3.872,3.874,3.8781,3.8796,3.8779,3.8857,3.8875,3.8942,3.8962,3.8977,3.899,3.8968,3.9056,3.9064,3.9072,3.91,3.9111,3.8981,3.898,3.898,3.898,0,3.8651,3.8693,3.8729,3.877,3.8796,3.8843,3.8852,3.8878,3.8875,3.8885,3.8941,3.8962,3.9001,3.9017,3.9014,3.9083,3.9073,3.9056,3.9024,3.9086,3.9112,3.9122,3.8984,3.8983,3.8983,3.8982,0,0,3.8743,3.8786,3.8799,3.8817,3.8851,3.8883,3.8929,3.8968,3.899,3.9019,3.9057,3.911,3.9095,3.9116,3.9116,3.9147,3.921,3.9126,3.9127,3.9141,3.9287,3.93,3.9312,3.9203,3.9205,3.9206,3.9285,0,3.8819,3.8901,3.8905,3.8979,3.9018,3.9007,3.9047,3.9071,3.9082,3.9115,3.9126,3.9164,3.9141,3.9154,3.9184,3.9196,3.9239,3.919,3.9237,3.9239,3.9231,3.9326,3.9339,3.9412,3.9295,3.9297,3.9298,0,3.8919,3.8952,3.903,3.9059,3.9075,3.9111,3.9147,3.918,3.9207,3.9212,3.9237,3.9232,3.9278,3.9245,3.9308,3.9274,3.9294,3.9302,3.9305,3.931,3.9272,3.9333,3.9435,3.9446,3.9314,3.9313,3.9311,0,3.8978,3.9042,3.9097,3.9113,3.9148,3.9174,3.9189,3.9215,3.9238,3.9269,3.9284,3.932,3.9339,3.9366,3.9371,3.9346,3.9434,3.9401,3.9439,3.9439,3.9458,3.9457,3.9566,3.9471,3.947,3.947,3.947,0,3.9063,3.9111,3.9124,3.9158,3.9212,3.9216,3.9268,3.9282,3.9305,3.934,3.9332,3.9366,3.937,3.9404,3.9408,3.946,3.9468,3.9473,3.9474,3.9474,3.9474,3.9487,3.9482,3.9473,3.9473,3.9472,3.9471,0,3.9138,3.9149,3.9209,3.9237,3.9245,3.9284,3.9307,3.934,3.9349,3.9394,3.9405,3.942,3.946,3.9467,3.9514,3.9516,3.9578,3.9573,3.9569,3.9569,3.9606,3.9603,3.9727,3.9744,3.9638,3.9639,3.964,0,3.9191,3.9229,3.9261,3.9285,3.9303,3.9341,3.9365,3.937,3.9395,3.9429,3.9457,3.9497,3.9528,3.9593,3.9607,3.9642,3.9638,3.968,3.9643,3.9643,3.9639,3.9637,3.964,3.9686,3.9687,3.9688,3.9689,0,3.9285,3.9288,3.9324,3.9362,3.9391,3.9421,3.9449,3.9468,3.9477,3.9505,3.9547,3.9572,3.962,3.9659,3.9695,3.971,3.9701,3.9701,3.9711,3.9712,3.9708,3.9711,3.9588,3.9698,3.9697,3.9696,3.9696,3.9695,3.9351,3.9383,3.9412,3.9452,3.9474,3.95,3.9532,3.9546,3.9581,3.9622,3.9622,3.9667,3.9693,3.9741,3.9758,3.9793,3.9779,3.9795,3.9799,3.9803,3.9806,3.9703,3.9799,3.9799,3.9799,3.9798,3.9798,0,3.9443,3.9461,3.9498,3.9538,3.957,3.956,3.9591,3.9617,3.9658,3.9683,3.9715,3.9763,3.9801,3.9818,3.9855,3.988,3.9877,3.9889,3.9888,3.9891,3.9816,3.9803,3.9891,3.9891,3.9891,3.9891,3.9891,3.9891,3.9495,3.955,3.9558,3.9623,3.964,3.9686,3.9704,3.9728,3.9749,3.9803,3.9835,3.9846,3.9869,3.9907,3.9942,3.9945,3.9959,3.9974,3.9976,3.9906,3.9896,3.9887,3.9875,3.9977,3.9977,4.0048,4.0049,4.005]}]]